Track AEROCUBE 7 now! 10-day predictions AEROCUBE 7 is classified as:
1 40966U 15058C 26259.88133308 .00002176 00000-0 17693-3 0 9997 2 40966 64.7614 317.4581 0127554 26.7702 333.9920 14.96313814379673